This is the latest recevied weather packets stored in our database for station/object WI0K. If no packets are shown the sender has not sent any weather packets the latest 10 day(s).
| Time | Temp. | Humidity | Pressure | Rain* | Wind** | Luminosity | Snow |
|---|---|---|---|---|---|---|---|
| 1778087202 | -0.56° C | 92% | 1020.3 hPa | 0 mm | - | 597 W/m² | - |
| 1778086902 | -0.56° C | 91% | 1020.3 hPa | 0 mm | - | 621 W/m² | - |
| 1778086601 | -0.56° C | 93% | 1020.2 hPa | 0 mm | - | 663 W/m² | - |
| 1778086300 | -0.56° C | 95% | 1020.2 hPa | 0 mm | - | 552 W/m² | - |
| 1778086000 | -0.56° C | 96% | 1020.1 hPa | 0 mm | - | 327 W/m² | - |
| 1778085699 | 0° C | 95% | 1019.8 hPa | 0 mm | - | 264 W/m² | - |
| 1778085398 | 0.56° C | 96% | 1019.7 hPa | 0 mm | - | 297 W/m² | - |
| 1778085097 | 1.11° C | 93% | 1019.7 hPa | 0 mm | - | 446 W/m² | - |
| 1778085047 | 1.67° C | 91% | 1019.8 hPa | 0 mm | - | 128 W/m² | - |
| 1778084797 | 1.67° C | 91% | 1019.8 hPa | 0 mm | - | 128 W/m² | - |
| 1778084731 | 1.67° C | 90% | 1019.8 hPa | 0 mm | - | 125 W/m² | - |
| 1778084496 | 1.67° C | 90% | 1019.8 hPa | 0 mm | - | 125 W/m² | - |
| 1778084446 | 1.67° C | 90% | 1019.7 hPa | 0 mm | - | 113 W/m² | - |
| 1778084196 | 1.67° C | 90% | 1019.7 hPa | 0 mm | - | 113 W/m² | - |
| 1778083895 | 1.11° C | 92% | 1019.5 hPa | 0 mm | - | 109 W/m² | - |
| 1778083595 | 1.11° C | 92% | 1019.5 hPa | 0 mm | - | 102 W/m² | - |
| 1778083544 | 1.11° C | 92% | 1019.6 hPa | 0 mm | - | 90 W/m² | - |
| 1778083294 | 1.11° C | 92% | 1019.6 hPa | 0 mm | - | 90 W/m² | - |
| 1778083244 | 1.11° C | 92% | 1019.7 hPa | 0 mm | - | 90 W/m² | - |
| 1778082993 | 1.11° C | 92% | 1019.7 hPa | 0 mm | - | 90 W/m² | - |
| 1778082943 | 1.11° C | 93% | 1019.7 hPa | 0 mm | - | 87 W/m² | - |
| 1778082693 | 1.11° C | 93% | 1019.7 hPa | 0 mm | - | 87 W/m² | - |
| 1778082643 | 1.11° C | 93% | 1019.7 hPa | 0 mm | - | 81 W/m² | - |
| 1778082392 | 1.11° C | 93% | 1019.7 hPa | 0 mm | - | 81 W/m² | - |
| 1778082342 | 1.11° C | 93% | 1019.6 hPa | 0 mm | - | 80 W/m² | - |
* Rain latest hour (hover to see other rain measurements)
** Current wind speed in m/s (hover to see current wind gust speed)